This is the latest recevied weather packets stored in our database for station/object WB0RXX. If no packets are shown the sender has not sent any weather packets the latest 10 day(s).
| Time | Temp. | Humidity | Pressure | Rain* | Wind** | Luminosity | Snow |
|---|---|---|---|---|---|---|---|
| 1777263603 | 7.22° C | 94% | 1008.5 hPa | 4.57 mm | - | - | - |
| 1777263005 | 7.22° C | 94% | 1008.8 hPa | 5.33 mm | - | - | - |
| 1777262405 | 7.78° C | 94% | 1008.9 hPa | 5.59 mm | - | - | - |
| 1777261804 | 7.78° C | 93% | 1009.3 hPa | 5.08 mm | - | - | - |
| 1777261203 | 7.78° C | 93% | 1009.5 hPa | 3.81 mm | - | - | - |
| 1777260603 | 7.78° C | 93% | 1010.2 hPa | 3.3 mm | - | - | - |
| 1777260003 | 7.78° C | 93% | 1010.4 hPa | 3.05 mm | - | - | - |
| 1777259404 | 7.78° C | 92% | 1010.6 hPa | 2.29 mm | - | - | - |
| 1777258804 | 7.78° C | 92% | 1010.4 hPa | 1.78 mm | - | - | - |
| 1777258203 | 8.33° C | 92% | 1010.3 hPa | 1.27 mm | - | - | - |
| 1777257603 | 8.33° C | 92% | 1010.2 hPa | 1.27 mm | - | - | - |
| 1777257004 | 8.33° C | 91% | 1010.2 hPa | 0.76 mm | - | - | - |
| 1777256420 | 8.33° C | 91% | 1010.3 hPa | 0.25 mm | - | - | - |
| 1777255805 | 8.33° C | 91% | 1010.3 hPa | 0 mm | - | - | - |
| 1777255204 | 8.33° C | 91% | 1010.4 hPa | 0 mm | - | - | - |
| 1777254604 | 8.33° C | 91% | 1010.4 hPa | 0 mm | - | - | - |
| 1777254003 | 8.33° C | 91% | 1010.3 hPa | 0.25 mm | - | - | - |
| 1777253410 | 8.33° C | 91% | 1010.3 hPa | 0.25 mm | - | - | - |
| 1777252803 | 8.33° C | 91% | 1010.4 hPa | 0.51 mm | - | - | - |
| 1777252203 | 8.33° C | 92% | 1010.5 hPa | 0.76 mm | - | - | - |
| 1777251602 | 8.33° C | 92% | 1010.6 hPa | 0.76 mm | - | - | - |
| 1777251003 | 8.33° C | 92% | 1010.9 hPa | 1.02 mm | - | - | - |
| 1777250403 | 8.89° C | 92% | 1011 hPa | 0.76 mm | - | - | - |
| 1777249803 | 8.89° C | 92% | 1011.4 hPa | 1.02 mm | - | - | - |
| 1777249203 | 8.89° C | 92% | 1011.5 hPa | 1.02 mm | - | - | - |
* Rain latest hour (hover to see other rain measurements)
** Current wind speed in m/s (hover to see current wind gust speed)